Time,TemperatureF,DewpointF,PressureIn,WindDirection,WindDirectionDegrees,WindSpeedMPH,WindSpeedGustMPH,Humidity,HourlyPrecipIn,Conditions,Clouds,dailyrainin,SoftwareType,DateUTC
2013-07-20 00:01:00,70.0,62.0,29.99,North,0,0.0,0.0,75,44.14,,,-99.99,,2013-07-20 07:01:00,
2013-07-20 00:12:00,70.0,62.0,29.99,North,0,0.0,0.0,77,44.14,,,-99.99,,2013-07-20 07:12:00,
2013-07-20 00:33:00,69.0,62.0,29.99,North,0,0.0,0.0,79,44.14,,,-99.99,,2013-07-20 07:33:00,
2013-07-20 00:44:00,69.0,62.0,29.99,North,0,0.0,0.0,79,44.14,,,-99.99,,2013-07-20 07:44:00,
2013-07-20 00:53:00,67.0,61.0,30.00,North,0,0.0,0.0,81,44.14,,,-99.99,,2013-07-20 07:53:00,
2013-07-20 01:01:00,67.0,61.0,30.00,North,0,0.0,0.0,81,44.14,,,-99.99,,2013-07-20 08:01:00,
2013-07-20 01:11:00,67.0,61.0,30.00,North,0,0.0,0.0,82,44.14,,,-99.99,,2013-07-20 08:11:00,
2013-07-20 01:52:00,66.0,61.0,30.00,North,0,0.0,0.0,85,44.14,,,-99.99,,2013-07-20 08:52:00,
2013-07-20 02:01:00,66.0,61.0,30.00,North,0,0.0,0.0,85,44.14,,,-99.99,,2013-07-20 09:01:00,
2013-07-20 02:11:00,65.0,61.0,30.01,North,0,0.0,0.0,86,44.14,,,-99.99,,2013-07-20 09:11:00,
2013-07-20 02:22:00,64.0,60.0,30.01,North,0,0.0,0.0,87,44.14,,,-99.99,,2013-07-20 09:22:00,
2013-07-20 02:33:00,64.0,60.0,30.01,North,0,0.0,0.0,88,44.14,,,-99.99,,2013-07-20 09:33:00,
2013-07-20 02:43:00,64.0,60.0,30.01,North,0,0.0,0.0,88,44.14,,,-99.99,,2013-07-20 09:43:00,
2013-07-20 02:53:00,64.0,60.0,30.01,North,0,0.0,0.0,88,44.14,,,-99.99,,2013-07-20 09:53:00,
2013-07-20 03:01:00,63.0,60.0,30.01,North,0,0.0,0.0,89,44.14,,,-99.99,,2013-07-20 10:01:00,
2013-07-20 03:11:00,63.0,60.0,30.01,North,0,0.0,0.0,89,44.14,,,-99.99,,2013-07-20 10:11:00,
2013-07-20 03:32:00,63.0,60.0,30.01,North,0,0.0,0.0,90,44.14,,,-99.99,,2013-07-20 10:32:00,
2013-07-20 03:42:00,63.0,60.0,30.01,North,0,0.0,0.0,91,44.14,,,-99.99,,2013-07-20 10:42:00,
2013-07-20 03:52:00,63.0,60.0,30.01,North,0,0.0,0.0,91,44.14,,,-99.99,,2013-07-20 10:52:00,
2013-07-20 04:01:00,64.0,61.0,30.02,North,0,0.0,0.0,91,44.14,,,-99.99,,2013-07-20 11:01:00,
2013-07-20 04:11:00,64.0,61.0,30.02,North,0,0.0,0.0,91,44.14,,,-99.99,,2013-07-20 11:11:00,
2013-07-20 04:21:00,64.0,61.0,30.02,SW,221,0.0,3.0,90,44.14,,,-99.99,,2013-07-20 11:21:00,
2013-07-20 04:32:00,64.0,61.0,30.02,SSW,204,1.0,3.0,91,44.14,,,-99.99,,2013-07-20 11:32:00,
2013-07-20 04:43:00,64.0,61.0,30.02,SW,214,1.0,5.0,91,44.14,,,-99.99,,2013-07-20 11:43:00,
2013-07-20 04:52:00,63.0,61.0,30.02,North,0,0.0,0.0,92,44.14,,,-99.99,,2013-07-20 11:52:00,
2013-07-20 05:01:00,63.0,61.0,30.02,North,0,0.0,0.0,92,44.14,,,-99.99,,2013-07-20 12:01:00,
2013-07-20 05:11:00,63.0,61.0,30.02,North,0,0.0,0.0,92,44.14,,,-99.99,,2013-07-20 12:11:00,
2013-07-20 05:22:00,63.0,61.0,30.02,South,177,0.0,2.0,92,44.14,,,-99.99,,2013-07-20 12:22:00,
2013-07-20 05:32:00,63.0,61.0,30.03,SW,225,0.0,2.0,92,44.14,,,-99.99,,2013-07-20 12:32:00,
2013-07-20 05:52:00,63.0,61.0,30.02,WSW,257,0.0,3.0,93,44.14,,,-99.99,,2013-07-20 12:52:00,
2013-07-20 06:01:00,63.0,61.0,30.03,North,0,0.0,0.0,93,44.14,,,-99.99,,2013-07-20 13:01:00,
2013-07-20 06:11:00,63.0,61.0,30.03,SW,235,0.0,2.0,93,44.14,,,-99.99,,2013-07-20 13:11:00,
2013-07-20 06:22:00,63.0,61.0,30.03,North,0,0.0,0.0,93,44.14,,,-99.99,,2013-07-20 13:22:00,
2013-07-20 06:52:00,62.0,60.0,30.04,North,0,0.0,0.0,94,44.14,,,-99.99,,2013-07-20 13:52:00,
2013-07-20 07:02:00,62.0,60.0,30.04,North,0,0.0,0.0,94,44.14,,,-99.99,,2013-07-20 14:02:00,
2013-07-20 07:11:00,63.0,61.0,30.04,North,0,0.0,0.0,94,44.14,,,-99.99,,2013-07-20 14:11:00,
2013-07-20 07:32:00,62.0,60.0,30.04,SSW,204,0.0,3.0,94,44.14,,,-99.99,,2013-07-20 14:32:00,
2013-07-20 07:43:00,62.0,60.0,30.04,SSW,204,0.0,3.0,94,44.14,,,-99.99,,2013-07-20 14:43:00,
2013-07-20 07:52:00,62.0,60.0,30.04,SSW,204,0.0,3.0,94,44.14,,,-99.99,,2013-07-20 14:52:00,
2013-07-20 08:01:00,63.0,61.0,30.04,North,0,0.0,0.0,94,44.14,,,-99.99,,2013-07-20 15:01:00,
2013-07-20 08:11:00,63.0,61.0,30.04,North,0,0.0,0.0,94,44.14,,,-99.99,,2013-07-20 15:11:00,
2013-07-20 08:22:00,63.0,61.0,30.04,North,0,0.0,0.0,92,44.14,,,-99.99,,2013-07-20 15:22:00,
2013-07-20 08:44:00,64.0,61.0,30.03,South,180,0.0,3.0,91,44.14,,,-99.99,,2013-07-20 15:44:00,
2013-07-20 08:53:00,64.0,61.0,30.03,South,180,0.0,3.0,91,44.14,,,-99.99,,2013-07-20 15:53:00,
2013-07-20 09:01:00,64.0,61.0,30.03,South,180,0.0,3.0,91,44.14,,,-99.99,,2013-07-20 16:01:00,
2013-07-20 09:11:00,65.0,62.0,30.02,South,183,0.0,2.0,89,44.14,,,-99.99,,2013-07-20 16:11:00,
2013-07-20 09:43:00,66.0,60.0,30.02,SSE,152,2.0,5.0,82,44.14,,,-99.99,,2013-07-20 16:43:00,
2013-07-20 09:52:00,68.0,62.0,30.01,WSW,248,1.0,3.0,82,44.14,,,-99.99,,2013-07-20 16:52:00,
2013-07-20 10:02:00,68.0,62.0,30.01,WSW,248,1.0,3.0,82,44.14,,,-99.99,,2013-07-20 17:02:00,
2013-07-20 10:11:00,68.0,62.0,30.01,WSW,248,1.0,3.0,82,44.14,,,-99.99,,2013-07-20 17:11:00,
2013-07-20 10:22:00,68.0,62.0,30.01,WSW,248,1.0,3.0,82,44.14,,,-99.99,,2013-07-20 17:22:00,
2013-07-20 10:32:00,70.0,62.0,30.00,SSE,163,2.0,5.0,77,44.14,,,-99.99,,2013-07-20 17:32:00,
2013-07-20 10:53:00,71.0,62.0,29.99,South,180,3.0,7.0,74,44.14,,,-99.99,,2013-07-20 17:53:00,
2013-07-20 11:22:00,71.0,62.0,29.98,SSW,210,3.0,7.0,73,44.14,,,-99.99,,2013-07-20 18:22:00,
2013-07-20 11:47:00,72.0,62.0,29.97,SW,224,4.0,9.0,72,44.14,,,-99.99,,2013-07-20 18:47:00,
2013-07-20 11:56:00,73.0,62.0,29.97,SSW,207,4.0,11.0,69,44.14,,,-99.99,,2013-07-20 18:56:00,
2013-07-20 12:01:00,74.0,63.0,29.97,South,172,3.0,9.0,69,44.14,,,-99.99,,2013-07-20 19:01:00,
2013-07-20 12:11:00,75.0,63.0,29.96,SSE,160,3.0,7.0,66,44.14,,,-99.99,,2013-07-20 19:11:00,
2013-07-20 12:23:00,75.0,63.0,29.96,SSE,160,3.0,7.0,66,44.14,,,-99.99,,2013-07-20 19:23:00,
2013-07-20 12:32:00,75.0,62.0,29.96,SW,219,4.0,9.0,65,44.14,,,-99.99,,2013-07-20 19:32:00,
2013-07-20 12:52:00,76.0,62.0,29.95,South,184,4.0,12.0,63,44.14,,,-99.99,,2013-07-20 19:52:00,
2013-07-20 13:03:00,77.0,62.0,29.94,WSW,239,5.0,13.0,59,44.14,,,-99.99,,2013-07-20 20:03:00,
2013-07-20 13:32:00,78.0,62.0,29.93,SSW,203,5.0,12.0,57,44.14,,,-99.99,,2013-07-20 20:32:00,
2013-07-20 13:52:00,79.0,62.0,29.92,SW,215,5.0,16.0,57,44.14,,,-99.99,,2013-07-20 20:52:00,
2013-07-20 14:01:00,80.0,62.0,29.92,SSW,198,4.0,14.0,55,44.14,,,-99.99,,2013-07-20 21:01:00,
2013-07-20 14:11:00,80.0,62.0,29.92,SSW,198,4.0,14.0,55,44.14,,,-99.99,,2013-07-20 21:11:00,
2013-07-20 14:32:00,80.0,63.0,29.92,South,174,6.0,18.0,56,44.14,,,-99.99,,2013-07-20 21:32:00,
2013-07-20 14:43:00,81.0,63.0,29.91,SW,217,6.0,12.0,54,44.14,,,-99.99,,2013-07-20 21:43:00,
2013-07-20 14:55:00,81.0,63.0,29.91,South,179,5.0,14.0,55,44.14,,,-99.99,,2013-07-20 21:55:00,
2013-07-20 15:02:00,81.0,63.0,29.91,South,188,5.0,14.0,54,44.14,,,-99.99,,2013-07-20 22:02:00,
2013-07-20 15:11:00,82.0,63.0,29.90,South,176,5.0,13.0,53,44.14,,,-99.99,,2013-07-20 22:11:00,
2013-07-20 15:21:00,81.0,62.0,29.90,South,186,6.0,15.0,53,44.14,,,-99.99,,2013-07-20 22:21:00,
2013-07-20 15:32:00,82.0,63.0,29.89,WSW,255,4.0,10.0,52,44.14,,,-99.99,,2013-07-20 22:32:00,
2013-07-20 16:02:00,82.0,62.0,29.88,SSE,156,6.0,16.0,51,44.14,,,-99.99,,2013-07-20 23:02:00,
2013-07-20 16:12:00,83.0,61.0,29.88,South,187,5.0,13.0,48,44.14,,,-99.99,,2013-07-20 23:12:00,
2013-07-20 16:24:00,83.0,62.0,29.88,South,173,7.0,16.0,49,44.14,,,-99.99,,2013-07-20 23:24:00,
2013-07-20 17:02:00,82.0,61.0,29.87,South,177,7.0,18.0,49,44.14,,,-99.99,,2013-07-21 00:02:00,
2013-07-20 17:22:00,82.0,61.0,29.87,South,177,7.0,18.0,49,44.14,,,-99.99,,2013-07-21 00:22:00,
2013-07-20 18:02:00,82.0,63.0,29.86,SSW,200,5.0,15.0,52,44.14,,,-99.99,,2013-07-21 01:02:00,
2013-07-20 18:11:00,81.0,62.0,29.85,South,177,6.0,19.0,53,44.14,,,-99.99,,2013-07-21 01:11:00,
2013-07-20 18:44:00,-999.0,-99.9,29.85,SSW,207,5.0,19.0,-999,44.14,,,-99.99,,2013-07-21 01:44:00,
2013-07-20 19:02:00,81.0,63.0,29.85,SSE,163,3.0,9.0,55,44.14,,,-99.99,,2013-07-21 02:02:00,
2013-07-20 19:22:00,80.0,63.0,29.85,South,190,3.0,15.0,57,44.14,,,-99.99,,2013-07-21 02:22:00,
2013-07-20 19:42:00,79.0,63.0,29.86,SSE,159,4.0,9.0,59,44.14,,,-99.99,,2013-07-21 02:42:00,
2013-07-20 19:52:00,79.0,64.0,29.86,SSW,195,4.0,11.0,60,44.14,,,-99.99,,2013-07-21 02:52:00,
2013-07-20 20:02:00,79.0,64.0,29.86,South,187,2.0,9.0,61,44.14,,,-99.99,,2013-07-21 03:02:00,
2013-07-20 20:11:00,78.0,64.0,29.87,SW,229,2.0,10.0,63,44.14,,,-99.99,,2013-07-21 03:11:00,
2013-07-20 20:32:00,77.0,65.0,29.87,SSE,153,3.0,7.0,66,44.14,,,-99.99,,2013-07-21 03:32:00,
2013-07-20 20:42:00,76.0,64.0,29.87,South,174,5.0,12.0,66,44.14,,,-99.99,,2013-07-21 03:42:00,
2013-07-20 21:01:00,75.0,64.0,29.87,SSE,148,3.0,7.0,69,44.14,,,-99.99,,2013-07-21 04:01:00,
2013-07-20 21:11:00,74.0,64.0,29.87,SSE,165,3.0,8.0,70,44.14,,,-99.99,,2013-07-21 04:11:00,
2013-07-20 21:32:00,73.0,63.0,29.88,South,190,3.0,8.0,70,44.14,,,-99.99,,2013-07-21 04:32:00,
2013-07-20 21:43:00,73.0,63.0,29.89,East,93,1.0,5.0,71,44.14,,,-99.99,,2013-07-21 04:43:00,
2013-07-20 21:53:00,73.0,63.0,29.89,South,169,3.0,9.0,71,44.14,,,-99.99,,2013-07-21 04:53:00,
2013-07-20 22:01:00,72.0,62.0,29.90,South,173,3.0,7.0,70,44.14,,,-99.99,,2013-07-21 05:01:00,
2013-07-20 22:11:00,72.0,62.0,29.90,South,173,3.0,7.0,70,44.14,,,-99.99,,2013-07-21 05:11:00,
2013-07-20 22:32:00,72.0,62.0,29.91,SSW,195,2.0,5.0,72,44.14,,,-99.99,,2013-07-21 05:32:00,
2013-07-20 22:42:00,72.0,63.0,29.91,SSW,201,1.0,4.0,73,44.14,,,-99.99,,2013-07-21 05:42:00,
2013-07-20 22:52:00,71.0,62.0,29.91,North,0,0.0,0.0,74,44.14,,,-99.99,,2013-07-21 05:52:00,
2013-07-20 23:01:00,71.0,62.0,29.91,North,0,0.0,0.0,74,44.14,,,-99.99,,2013-07-21 06:01:00,
2013-07-20 23:11:00,70.0,61.0,29.91,SE,139,1.0,4.0,74,44.14,,,-99.99,,2013-07-21 06:11:00,
2013-07-20 23:22:00,70.0,61.0,29.91,SE,142,2.0,6.0,74,44.14,,,-99.99,,2013-07-21 06:22:00,
2013-07-20 23:32:00,70.0,61.0,29.91,SE,142,2.0,6.0,74,44.14,,,-99.99,,2013-07-21 06:32:00,
2013-07-20 23:42:00,69.0,62.0,29.91,North,0,0.0,0.0,78,44.14,,,-99.99,,2013-07-21 06:42:00,
2013-07-20 23:52:00,69.0,62.0,29.91,North,0,0.0,0.0,78,44.14,,,-99.99,,2013-07-21 06:52:00,